Sault Ste Marie, MI

5:27 PM EDT on April 20, 2018 (GMT -0400)
Sault Ste Marie Municipal / Sanderson Field

Weather History for KANJ - March, 2013

Change the Weather History Date:

Friday, March 15, 2013

  Actual Average Record
Temperature  
Mean Temperature 24 °F 26 °F  
Max Temperature 31 °F 34 °F 63 °F (2010)
Min Temperature 16 °F 17 °F -15 °F (1916)
Degree Days  
Heating Degree Days 41 39  
Month to date heating degree days 612 627  
Since 1 July heating degree days 6344 6753  
Cooling Degree Days 0 0  
Month to date cooling degree days 0 0  
Year to date cooling degree days 0 0  
Moisture  
Dew Point 17 °F    
Average Humidity 67    
Maximum Humidity 85    
Minimum Humidity 49    
Precipitation  
Precipitation 0.02 in 0.06 in 1.38 in (1971)
Month to date precipitation 1.64 0.86  
Year to date precipitation 7.73 4.39  
Snow  
Snow 0.30 in 0.40 in 8.80 in (1959)
Month to date snowfall 7.7 7.5  
Since 1 July snowfall 128.5 107.7  
Snow Depth 24.00 in    
Sea Level Pressure  
Sea Level Pressure 29.86 in    
Wind  
Wind Speed 13 mph (WNW)    
Max Wind Speed 24 mph    
Max Gust Speed 33 mph    
Visibility 8 miles    
Events Snow    
T = Trace of Precipitation, MM = Missing Value Source: NWS Daily Summary

Daily Weather History Graph

Daily Weather History Graph

Search for Another Location

Airport or City:

Astronomy

Mar. 15, 2013 Rise Set
Actual Time 7:49 AM EDT 7:43 PM EDT
Civil Twilight 7:19 AM EDT 8:13 PM EDT
Nautical Twilight 6:44 AM EDT 8:48 PM EDT
Astronomical Twilight 6:08 AM EDT 9:24 PM EDT
Moon 9:24 AM EDT (3/15) No Moon Set
Length of Visible Light 12h 53m
Length of Day
11h 53m
Waxing Crescent, 15% of the Moon is Illuminated
Mar 15
Waxing Crescent
Mar 19
First Quarter
Mar 27
Full
Apr 3
Last Quarter
Apr 10
New

Hourly Weather History & Observations

Time (EDT) Temp. Windchill Dew Point Humidity Pressure Visibility Wind Dir Wind Speed Gust Speed Precip Events Conditions
12:26 AM 28.0 °F 18.6 °F 23.0 °F 81% 29.87 in 3.0 mi SW 10.4 mph - 0.00 in Snow Light Snow
12:36 AM 28.0 °F 18.6 °F 23.0 °F 81% 29.86 in 2.5 mi SW 10.4 mph - 0.00 in Snow Light Snow
12:55 AM 28.0 °F 19.3 °F 24.1 °F 85% 29.87 in 2.0 mi SW 9.2 mph - 0.00 in Snow Light Snow
1:12 AM 28.0 °F 20.0 °F 24.1 °F 85% 29.83 in 1.5 mi SW 8.1 mph - 0.01 in Snow Light Snow
1:30 AM 28.0 °F 20.8 °F 24.1 °F 85% 29.83 in 2.0 mi SW 6.9 mph - 0.02 in Snow Light Snow
1:55 AM 28.9 °F 18.6 °F 25.0 °F 85% 29.84 in 4.0 mi WSW 12.7 mph - 0.02 in Snow Light Snow
2:12 AM 28.9 °F 18.6 °F 25.0 °F 85% 29.80 in 7.0 mi WSW 12.7 mph - 0.00 in Snow Light Snow
2:55 AM 28.9 °F 19.2 °F 25.0 °F 85% 29.81 in 7.0 mi WSW 11.5 mph - 0.00 in   Overcast
3:24 AM 30.0 °F 19.5 °F 25.0 °F 82% 29.77 in 9.0 mi WSW 13.8 mph - 0.00 in   Overcast
3:55 AM 30.9 °F 19.8 °F 26.1 °F 82% 29.77 in 6.0 mi West 16.1 mph 26.5 mph 0.00 in Snow Light Snow
4:12 AM 30.9 °F 19.8 °F 26.1 °F 82% 29.75 in 2.0 mi West 16.1 mph 32.2 mph 0.00 in Snow Light Snow
4:22 AM 30.0 °F 19.1 °F 26.1 °F 85% 29.75 in 5.0 mi West 15.0 mph 26.5 mph 0.00 in   Overcast
4:45 AM 30.9 °F 19.4 °F 25.0 °F 79% 29.75 in 9.0 mi NW 17.3 mph 31.1 mph 0.00 in   Overcast
4:55 AM 30.0 °F 17.5 °F 23.0 °F 75% 29.77 in 7.0 mi NW 19.6 mph 31.1 mph 0.00 in   Overcast
5:55 AM 27.0 °F 14.7 °F 18.0 °F 69% 29.78 in 8.0 mi WNW 16.1 mph 33.4 mph 0.00 in   Partly Cloudy
6:15 AM 27.0 °F 13.9 °F 19.0 °F 72% 29.77 in 8.0 mi NW 18.4 mph 32.2 mph 0.00 in   Mostly Cloudy
6:55 AM 26.1 °F 15.0 °F 16.0 °F 66% 29.81 in 10.0 mi NW 12.7 mph 33.4 mph 0.00 in   Mostly Cloudy
7:55 AM 24.1 °F 12.0 °F 14.0 °F 65% 29.84 in 10.0 mi NNW 13.8 mph 20.7 mph N/A   Overcast
8:55 AM 25.0 °F 15.5 °F 14.0 °F 63% 29.87 in 10.0 mi NNW 9.2 mph - N/A   Overcast
9:12 AM 25.0 °F 13.6 °F 12.9 °F 60% 29.84 in 10.0 mi NNW 12.7 mph 23.0 mph N/A   Overcast
1:55 PM 26.1 °F 12.3 °F 14.0 °F 60% 29.88 in 10.0 mi NW 19.6 mph 25.3 mph N/A   Scattered Clouds
2:55 PM 25.0 °F 10.9 °F 12.9 °F 60% 29.89 in 10.0 mi NW 19.6 mph 28.8 mph N/A   Partly Cloudy
3:55 PM 24.1 °F 9.0 °F 10.9 °F 57% 29.91 in 10.0 mi NW 21.9 mph 29.9 mph N/A   Clear
4:55 PM 21.9 °F 7.8 °F 10.0 °F 60% 29.91 in 10.0 mi NW 17.3 mph 27.6 mph N/A   Clear
5:55 PM 21.9 °F 10.4 °F 10.0 °F 60% 29.93 in 10.0 mi WNW 11.5 mph 18.4 mph N/A   Partly Cloudy
6:55 PM 21.0 °F 7.6 °F 8.1 °F 57% 29.93 in 10.0 mi NW 15.0 mph 20.7 mph N/A   Clear
7:55 PM 19.9 °F 9.3 °F 7.0 °F 57% 29.96 in 10.0 mi NW 9.2 mph - N/A   Clear
8:55 PM 19.9 °F 10.1 °F 7.0 °F 57% 29.96 in 10.0 mi NW 8.1 mph - N/A   Clear
9:55 PM 19.9 °F 11.1 °F 7.0 °F 57% 29.96 in 10.0 mi NW 6.9 mph - N/A   Clear
10:55 PM 19.9 °F 10.1 °F 5.0 °F 52% 29.97 in 10.0 mi NE 8.1 mph - N/A   Partly Cloudy
11:55 PM 18.0 °F 5.4 °F 1.0 °F 48% 29.98 in 10.0 mi NE 11.5 mph 17.3 mph 0.00 in   Mostly Cloudy